Weather in Bulgakovo

Russia / Republic of Mordovia     54°03′33″N   45°14′36″E
temp.,
°C
wind,
m/s
gust,
m/s
humid.,
%
clouds,
%
prec.,
mm/h
press.,
hPa
HPBL,
m
3 march, wed
wed300:00−4wnw489670 0.0 1004153
03:00−7wnw479768 0.1 1005133
06:00−3nw6109592 0.1 1006643
09:00−5nnw7108896 0.1 1008791
12:00−5nw71090100 0.1 1009757
15:00−5nw71089100 0.3 1010773
18:00−5nw51092100 0.1 1010723
21:00−9w479183 0.1 1011113
4 march, thu
thu400:00−8wsw499771 0.0 1009196
03:00−4wsw6129485 0.1 1008577
06:00−3wsw71393100 0.2 1005790
09:00−2wsw91591100 0.3 1002746
12:000wsw101694100 0.4 1000952
15:000w91489100 0.6 10001091
18:000wsw7139198 0.1 1001756
21:00−1w489899 1.2 1002457
5 march, fri
fri500:00−3nnw1298100 1.2 100054
03:00−3ene2298100 3.3 100097
06:00−4nne4697100 2.1 999212
09:00−4n4795100 2.9 1001457
12:00−4n4691100 0.2 1004530
15:00−4nnw358899 0.2 1007579
18:00−11nw119227 0.0 101021
21:00−11ssw229150 0.0 101221
6 march, sat
sat600:00−11sw239770 0.0 101331
03:00−10sw369783 0.1 1013136
06:00−12w3696100 0.0 1012112
09:00−11wnw4896100 0.0 1013270
12:00−8nw479091 0.0 1012428
15:00−7wnw468882 0.1 1013760
18:00−11w469478 0.1 1013120
21:00−13nw369769 0.2 1015120
7 march, sun
sun700:00−18wnw239865 0.0 101523
03:00−19w339934 0.0 101527
06:00−19sw349830 0.0 101561
09:00−15ssw6119116 0.0 1013301
12:00−10ssw8148489 0.0 1009669
15:00−7sw10179295 0.1 10041140
18:00−6sw101793100 1.0 10001171
21:00−5sw101694100 2.4 9971054